Time,TemperatureF,DewpointF,PressureIn,WindDirection,WindDirectionDegrees,WindSpeedMPH,WindSpeedGustMPH,Humidity,HourlyPrecipIn,Conditions,Clouds,dailyrainin,SoftwareType,DateUTC
2013-03-01 00:00:00,55.0,49.3,29.73,WSW,247,0.0,3.0,81,0.00,,---,0.00,VWS V14.01,2013-03-01 05:00:00,
2013-03-01 00:01:00,55.0,49.3,29.73,WSW,247,0.0,1.0,81,0.00,,---,0.00,VWS V14.01,2013-03-01 05:01:00,
2013-03-01 00:02:00,55.0,49.6,29.73,WSW,247,0.0,1.0,82,0.00,,---,0.00,VWS V14.01,2013-03-01 05:02:00,
2013-03-01 00:07:00,55.0,49.9,29.73,SW,225,0.0,5.0,83,0.00,,---,0.00,VWS V14.01,2013-03-01 05:07:00,
2013-03-01 00:08:00,55.0,49.6,29.73,SW,225,0.0,0.0,82,0.00,,---,0.00,VWS V14.01,2013-03-01 05:08:00,
2013-03-01 00:10:00,55.0,49.9,29.72,SW,225,0.0,5.0,83,0.00,,---,0.00,VWS V14.01,2013-03-01 05:10:00,
2013-03-01 00:15:00,55.0,49.3,29.72,West,270,1.0,2.0,81,0.00,,---,0.00,VWS V14.01,2013-03-01 05:15:00,
2013-03-01 00:20:00,56.0,50.3,29.72,WSW,247,0.0,3.0,81,0.00,,---,0.00,VWS V14.01,2013-03-01 05:20:00,
2013-03-01 00:26:00,55.0,49.6,29.72,WSW,247,0.0,0.0,82,0.00,,---,0.00,VWS V14.01,2013-03-01 05:26:00,
2013-03-01 00:31:00,55.0,49.6,29.72,WSW,247,0.0,1.0,82,0.00,,---,0.00,VWS V14.01,2013-03-01 05:31:00,
2013-03-01 00:36:00,55.0,50.3,29.72,SW,225,2.0,4.0,84,0.00,,---,0.00,VWS V14.01,2013-03-01 05:36:00,
2013-03-01 00:41:00,55.0,49.9,29.72,SW,225,0.0,0.0,83,0.00,,---,0.00,VWS V14.01,2013-03-01 05:41:00,
2013-03-01 00:46:00,55.0,50.3,29.72,SW,225,0.0,0.0,84,0.00,,---,0.00,VWS V14.01,2013-03-01 05:46:00,
2013-03-01 00:51:00,55.0,50.3,29.72,SW,225,0.0,0.0,84,0.00,,---,0.00,VWS V14.01,2013-03-01 05:51:00,
2013-03-01 00:56:00,54.0,49.6,29.72,SW,225,0.0,0.0,85,0.00,,---,0.00,VWS V14.01,2013-03-01 05:56:00,
2013-03-01 01:01:00,54.0,49.9,29.73,SW,225,0.0,2.0,86,0.00,,---,0.00,VWS V14.01,2013-03-01 06:01:00,
2013-03-01 01:06:00,54.0,49.9,29.73,SW,225,0.0,0.0,86,0.00,,---,0.00,VWS V14.01,2013-03-01 06:06:00,
2013-03-01 01:11:00,54.0,50.2,29.73,SW,225,2.0,2.0,87,0.00,,---,0.00,VWS V14.01,2013-03-01 06:11:00,
2013-03-01 01:16:00,54.0,50.5,29.73,SW,225,0.0,0.0,88,0.00,,---,0.00,VWS V14.01,2013-03-01 06:16:00,
2013-03-01 01:22:00,54.0,50.2,29.73,SW,225,0.0,0.0,87,0.00,,---,0.00,VWS V14.01,2013-03-01 06:22:00,
2013-03-01 01:27:00,54.0,49.9,29.73,SW,225,0.0,0.0,86,0.00,,---,0.00,VWS V14.01,2013-03-01 06:27:00,
2013-03-01 01:32:00,55.0,50.6,29.72,SW,225,0.0,2.0,85,0.00,,---,0.00,VWS V14.01,2013-03-01 06:32:00,
2013-03-01 01:37:00,55.0,50.6,29.72,SW,225,0.0,2.0,85,0.00,,---,0.00,VWS V14.01,2013-03-01 06:37:00,
2013-03-01 01:42:00,55.0,50.3,29.72,SW,225,0.0,3.0,84,0.00,,---,0.00,VWS V14.01,2013-03-01 06:42:00,
2013-03-01 01:47:00,55.0,50.3,29.72,SW,225,1.0,2.0,84,0.00,,---,0.00,VWS V14.01,2013-03-01 06:47:00,
2013-03-01 01:52:00,55.0,49.9,29.71,WSW,247,1.0,6.0,83,0.00,,---,0.00,VWS V14.01,2013-03-01 06:52:00,
2013-03-01 01:57:00,55.0,49.9,29.71,SW,225,0.0,0.0,83,0.00,,---,0.00,VWS V14.01,2013-03-01 06:57:00,
2013-03-01 02:02:00,55.0,49.9,29.72,WSW,247,0.0,0.0,83,0.00,,---,0.00,VWS V14.01,2013-03-01 07:02:00,
2013-03-01 02:07:00,55.0,49.6,29.72,WSW,247,0.0,0.0,82,0.00,,---,0.00,VWS V14.01,2013-03-01 07:07:00,
2013-03-01 02:12:00,55.0,49.6,29.71,WSW,247,0.0,0.0,82,0.00,,---,0.00,VWS V14.01,2013-03-01 07:12:00,
2013-03-01 02:17:00,55.0,49.6,29.71,WSW,247,0.0,1.0,82,0.00,,---,0.00,VWS V14.01,2013-03-01 07:17:00,
2013-03-01 02:22:00,56.0,50.3,29.71,NE,45,0.0,0.0,81,0.00,,---,0.00,VWS V14.01,2013-03-01 07:22:00,
2013-03-01 02:27:00,56.0,50.3,29.71,West,270,3.0,4.0,81,0.00,,---,0.00,VWS V14.01,2013-03-01 07:27:00,
2013-03-01 02:32:00,56.0,50.3,29.71,WSW,247,0.0,1.0,81,0.00,,---,0.00,VWS V14.01,2013-03-01 07:32:00,
2013-03-01 02:37:00,55.0,49.3,29.71,WSW,247,0.0,0.0,81,0.00,,---,0.00,VWS V14.01,2013-03-01 07:37:00,
2013-03-01 02:42:00,55.0,49.3,29.71,WSW,247,0.0,2.0,81,0.00,,---,0.00,VWS V14.01,2013-03-01 07:42:00,
2013-03-01 02:47:00,55.0,49.3,29.71,WSW,247,0.0,0.0,81,0.00,,---,0.00,VWS V14.01,2013-03-01 07:47:00,
2013-03-01 02:52:00,55.0,49.3,29.72,SW,225,0.0,0.0,81,0.00,,---,0.00,VWS V14.01,2013-03-01 07:52:00,
2013-03-01 02:57:00,55.0,49.3,29.72,SW,225,0.0,1.0,81,0.00,,---,0.00,VWS V14.01,2013-03-01 07:57:00,
2013-03-01 03:02:00,55.0,49.3,29.71,SSW,202,0.0,0.0,81,0.00,,---,0.00,VWS V14.01,2013-03-01 08:02:00,
2013-03-01 03:07:00,54.0,48.3,29.71,SW,225,0.0,0.0,81,0.00,,---,0.00,VWS V14.01,2013-03-01 08:07:00,
2013-03-01 03:12:00,54.0,48.6,29.72,SW,225,1.0,1.0,82,0.00,,---,0.00,VWS V14.01,2013-03-01 08:12:00,
2013-03-01 03:17:00,54.0,49.0,29.72,SW,225,0.0,0.0,83,0.00,,---,0.00,VWS V14.01,2013-03-01 08:17:00,
2013-03-01 03:22:00,54.0,49.3,29.71,SW,225,0.0,0.0,84,0.00,,---,0.00,VWS V14.01,2013-03-01 08:22:00,
2013-03-01 03:27:00,53.0,48.0,29.71,SW,225,0.0,0.0,83,0.00,,---,0.00,VWS V14.01,2013-03-01 08:27:00,
2013-03-01 03:32:00,53.0,48.6,29.71,SW,225,0.0,0.0,85,0.00,,---,0.00,VWS V14.01,2013-03-01 08:32:00,
2013-03-01 03:37:00,53.0,48.6,29.71,SW,225,0.0,0.0,85,0.00,,---,0.00,VWS V14.01,2013-03-01 08:37:00,
2013-03-01 03:42:00,53.0,48.6,29.71,South,180,0.0,1.0,85,0.00,,---,0.00,VWS V14.01,2013-03-01 08:42:00,
2013-03-01 03:47:00,53.0,48.3,29.71,South,180,0.0,1.0,84,0.00,,---,0.00,VWS V14.01,2013-03-01 08:47:00,
2013-03-01 03:52:00,54.0,49.3,29.71,SW,225,1.0,1.0,84,0.00,,---,0.00,VWS V14.01,2013-03-01 08:52:00,
2013-03-01 03:57:00,54.0,49.3,29.71,SW,225,0.0,1.0,84,0.00,,---,0.00,VWS V14.01,2013-03-01 08:57:00,
2013-03-01 04:02:00,54.0,49.3,29.71,South,180,0.0,1.0,84,0.00,,---,0.00,VWS V14.01,2013-03-01 09:02:00,
2013-03-01 04:07:00,54.0,49.0,29.71,South,180,0.0,2.0,83,0.00,,---,0.00,VWS V14.01,2013-03-01 09:07:00,
2013-03-01 04:12:00,54.0,49.0,29.71,SW,225,0.0,0.0,83,0.00,,---,0.00,VWS V14.01,2013-03-01 09:12:00,
2013-03-01 04:17:00,54.0,49.0,29.71,WSW,247,3.0,4.0,83,0.00,,---,0.00,VWS V14.01,2013-03-01 09:17:00,
2013-03-01 04:22:00,54.0,48.6,29.70,South,180,0.0,1.0,82,0.00,,---,0.00,VWS V14.01,2013-03-01 09:22:00,
2013-03-01 04:27:00,54.0,48.3,29.70,ENE,67,0.0,2.0,81,0.00,,---,0.00,VWS V14.01,2013-03-01 09:27:00,
2013-03-01 04:32:00,54.0,48.3,29.70,WNW,292,0.0,0.0,81,0.00,,---,0.00,VWS V14.01,2013-03-01 09:32:00,
2013-03-01 04:37:00,54.0,48.3,29.70,NE,45,0.0,2.0,81,0.00,,---,0.00,VWS V14.01,2013-03-01 09:37:00,
2013-03-01 04:42:00,54.0,48.3,29.70,NE,45,1.0,1.0,81,0.00,,---,0.00,VWS V14.01,2013-03-01 09:42:00,
2013-03-01 04:47:00,54.0,48.0,29.70,West,270,0.0,0.0,80,0.00,,---,0.00,VWS V14.01,2013-03-01 09:47:00,
2013-03-01 04:52:00,54.0,48.0,29.69,West,270,0.0,2.0,80,0.00,,---,0.00,VWS V14.01,2013-03-01 09:52:00,
2013-03-01 04:57:00,54.0,48.0,29.69,North,360,0.0,0.0,80,0.00,,---,0.00,VWS V14.01,2013-03-01 09:57:00,
2013-03-01 05:02:00,54.0,48.0,29.69,North,360,0.0,0.0,80,0.00,,---,0.00,VWS V14.01,2013-03-01 10:02:00,
2013-03-01 05:07:00,54.0,48.0,29.69,North,360,0.0,0.0,80,0.00,,---,0.00,VWS V14.01,2013-03-01 10:07:00,
2013-03-01 05:12:00,54.0,48.0,29.70,North,360,0.0,0.0,80,0.00,,---,0.00,VWS V14.01,2013-03-01 10:12:00,
2013-03-01 05:17:00,54.0,48.3,29.70,North,360,0.0,0.0,81,0.00,,---,0.00,VWS V14.01,2013-03-01 10:17:00,
2013-03-01 05:22:00,54.0,48.3,29.70,North,360,0.0,0.0,81,0.00,,---,0.00,VWS V14.01,2013-03-01 10:22:00,
2013-03-01 05:27:00,53.0,47.0,29.70,WNW,292,0.0,0.0,80,0.00,,---,0.00,VWS V14.01,2013-03-01 10:27:00,
2013-03-01 05:32:00,53.0,47.7,29.71,WNW,292,1.0,2.0,82,0.00,,---,0.00,VWS V14.01,2013-03-01 10:32:00,
2013-03-01 05:37:00,53.0,47.7,29.71,WNW,292,0.0,0.0,82,0.00,,---,0.00,VWS V14.01,2013-03-01 10:37:00,
2013-03-01 05:42:00,53.0,48.0,29.71,West,270,0.0,0.0,83,0.00,,---,0.00,VWS V14.01,2013-03-01 10:42:00,
2013-03-01 05:47:00,52.0,47.3,29.71,West,270,0.0,1.0,84,0.00,,---,0.00,VWS V14.01,2013-03-01 10:47:00,
2013-03-01 05:52:00,52.0,47.0,29.72,West,270,0.0,0.0,83,0.00,,---,0.00,VWS V14.01,2013-03-01 10:52:00,
2013-03-01 05:57:00,52.0,48.3,29.72,West,270,0.0,0.0,87,0.00,,---,0.00,VWS V14.01,2013-03-01 10:57:00,
2013-03-01 06:02:00,52.0,48.3,29.72,West,270,0.0,0.0,87,0.00,,---,0.00,VWS V14.01,2013-03-01 11:02:00,
2013-03-01 06:07:00,52.0,48.3,29.72,West,270,2.0,2.0,87,0.00,,---,0.00,VWS V14.01,2013-03-01 11:07:00,
2013-03-01 06:12:00,52.0,48.6,29.73,West,270,0.0,0.0,88,0.00,,---,0.00,VWS V14.01,2013-03-01 11:12:00,
2013-03-01 06:17:00,52.0,48.6,29.73,West,270,2.0,5.0,88,0.00,,---,0.00,VWS V14.01,2013-03-01 11:17:00,
2013-03-01 06:22:00,52.0,48.6,29.73,West,270,0.0,2.0,88,0.00,,---,0.00,VWS V14.01,2013-03-01 11:22:00,
2013-03-01 06:27:00,52.0,48.6,29.73,West,270,1.0,1.0,88,0.00,,---,0.00,VWS V14.01,2013-03-01 11:27:00,
2013-03-01 06:32:00,52.0,48.6,29.73,West,270,0.0,2.0,88,0.00,,---,0.00,VWS V14.01,2013-03-01 11:32:00,
2013-03-01 06:37:00,52.0,48.6,29.73,West,270,1.0,1.0,88,0.00,,---,0.00,VWS V14.01,2013-03-01 11:37:00,
2013-03-01 06:42:00,52.0,48.6,29.74,West,270,2.0,3.0,88,0.00,,---,0.00,VWS V14.01,2013-03-01 11:42:00,
2013-03-01 06:47:00,52.0,48.6,29.74,West,270,0.0,1.0,88,0.00,,---,0.00,VWS V14.01,2013-03-01 11:47:00,
2013-03-01 06:52:00,52.0,48.6,29.75,West,270,0.0,1.0,88,0.00,,---,0.00,VWS V14.01,2013-03-01 11:52:00,
2013-03-01 06:57:00,52.0,48.6,29.75,West,270,0.0,2.0,88,0.00,,---,0.00,VWS V14.01,2013-03-01 11:57:00,
2013-03-01 07:02:00,52.0,48.6,29.75,West,270,0.0,1.0,88,0.00,,---,0.00,VWS V14.01,2013-03-01 12:02:00,
2013-03-01 07:07:00,52.0,48.3,29.75,NW,315,0.0,0.0,87,0.00,,---,0.00,VWS V14.01,2013-03-01 12:07:00,
2013-03-01 07:12:00,52.0,48.0,29.75,West,270,0.0,0.0,86,0.00,,---,0.00,VWS V14.01,2013-03-01 12:12:00,
2013-03-01 07:17:00,52.0,47.6,29.75,NNW,337,0.0,0.0,85,0.00,,---,0.00,VWS V14.01,2013-03-01 12:17:00,
2013-03-01 07:22:00,52.0,47.6,29.76,West,270,1.0,1.0,85,0.00,,---,0.00,VWS V14.01,2013-03-01 12:22:00,
2013-03-01 07:27:00,52.0,47.6,29.76,West,270,0.0,1.0,85,0.00,,---,0.00,VWS V14.01,2013-03-01 12:27:00,
2013-03-01 07:32:00,52.0,47.3,29.76,West,270,0.0,0.0,84,0.00,,---,0.00,VWS V14.01,2013-03-01 12:32:00,
2013-03-01 07:37:00,53.0,47.7,29.76,North,360,2.0,6.0,82,0.00,,---,0.00,VWS V14.01,2013-03-01 12:37:00,
2013-03-01 07:42:00,53.0,46.3,29.76,North,360,0.0,3.0,78,0.00,,---,0.00,VWS V14.01,2013-03-01 12:42:00,
2013-03-01 07:47:00,53.0,43.9,29.76,ENE,67,1.0,6.0,71,0.00,,---,0.00,VWS V14.01,2013-03-01 12:47:00,
2013-03-01 07:52:00,53.0,43.9,29.77,NNE,22,0.0,4.0,71,0.00,,---,0.00,VWS V14.01,2013-03-01 12:52:00,
2013-03-01 07:57:00,53.0,43.5,29.77,NNW,337,0.0,5.0,70,0.00,,---,0.00,VWS V14.01,2013-03-01 12:57:00,
2013-03-01 08:02:00,54.0,44.1,29.76,East,90,1.0,5.0,69,0.00,,---,0.00,VWS V14.01,2013-03-01 13:02:00,
2013-03-01 08:07:00,54.0,43.7,29.76,SE,135,0.0,6.0,68,0.00,,---,0.00,VWS V14.01,2013-03-01 13:07:00,
2013-03-01 08:12:00,54.0,43.7,29.76,NE,45,0.0,6.0,68,0.00,,---,0.00,VWS V14.01,2013-03-01 13:12:00,
2013-03-01 08:17:00,54.0,44.1,29.76,North,360,0.0,1.0,69,0.00,,---,0.00,VWS V14.01,2013-03-01 13:17:00,
2013-03-01 08:22:00,54.0,43.3,29.77,NW,315,0.0,1.0,67,0.00,,---,0.00,VWS V14.01,2013-03-01 13:22:00,
2013-03-01 08:27:00,54.0,42.9,29.77,NNW,337,0.0,4.0,66,0.00,,---,0.00,VWS V14.01,2013-03-01 13:27:00,
2013-03-01 08:32:00,54.0,42.9,29.77,NNW,337,0.0,0.0,66,0.00,,---,0.00,VWS V14.01,2013-03-01 13:32:00,
2013-03-01 08:37:00,55.0,44.3,29.77,NNW,337,0.0,0.0,67,0.00,,---,0.00,VWS V14.01,2013-03-01 13:37:00,
2013-03-01 08:42:00,55.0,43.5,29.76,East,90,0.0,0.0,65,0.00,,---,0.00,VWS V14.01,2013-03-01 13:42:00,
2013-03-01 08:47:00,55.0,43.1,29.76,North,360,0.0,2.0,64,0.00,,---,0.00,VWS V14.01,2013-03-01 13:47:00,
2013-03-01 08:52:00,55.0,42.2,29.77,NNE,22,3.0,4.0,62,0.00,,---,0.00,VWS V14.01,2013-03-01 13:52:00,
2013-03-01 08:57:00,55.0,41.4,29.77,North,360,3.0,5.0,60,0.00,,---,0.00,VWS V14.01,2013-03-01 13:57:00,
2013-03-01 09:02:00,56.0,41.9,29.77,North,360,2.0,5.0,59,0.00,,---,0.00,VWS V14.01,2013-03-01 14:02:00,
2013-03-01 09:07:00,56.0,41.0,29.77,NNE,22,4.0,5.0,57,0.00,,---,0.00,VWS V14.01,2013-03-01 14:07:00,
2013-03-01 09:12:00,56.0,41.5,29.76,North,360,0.0,0.0,58,0.00,,---,0.00,VWS V14.01,2013-03-01 14:12:00,
2013-03-01 09:17:00,57.0,41.0,29.76,NNE,22,0.0,5.0,55,0.00,,---,0.00,VWS V14.01,2013-03-01 14:17:00,
2013-03-01 09:22:00,57.0,41.5,29.77,North,360,0.0,4.0,56,0.00,,---,0.00,VWS V14.01,2013-03-01 14:22:00,
2013-03-01 09:27:00,58.0,42.4,29.77,North,360,0.0,1.0,56,0.00,,---,0.00,VWS V14.01,2013-03-01 14:27:00,
2013-03-01 09:32:00,58.0,41.5,29.77,SW,225,3.0,6.0,54,0.00,,---,0.00,VWS V14.01,2013-03-01 14:32:00,
2013-03-01 09:37:00,58.0,41.0,29.77,North,360,0.0,6.0,53,0.00,,---,0.00,VWS V14.01,2013-03-01 14:37:00,
2013-03-01 09:42:00,58.0,40.0,29.77,NE,45,2.0,5.0,51,0.00,,---,0.00,VWS V14.01,2013-03-01 14:42:00,
2013-03-01 09:47:00,58.0,41.5,29.77,North,360,2.0,4.0,54,0.00,,---,0.00,VWS V14.01,2013-03-01 14:47:00,
2013-03-01 09:52:00,58.0,40.5,29.77,North,360,0.0,4.0,52,0.00,,---,0.00,VWS V14.01,2013-03-01 14:52:00,
2013-03-01 09:57:00,58.0,40.0,29.77,North,360,0.0,2.0,51,0.00,,---,0.00,VWS V14.01,2013-03-01 14:57:00,
2013-03-01 10:02:00,58.0,40.5,29.77,North,360,0.0,1.0,52,0.00,,---,0.00,VWS V14.01,2013-03-01 15:02:00,
2013-03-01 10:07:00,58.0,41.5,29.77,NW,315,0.0,1.0,54,0.00,,---,0.00,VWS V14.01,2013-03-01 15:07:00,
2013-03-01 10:12:00,60.0,42.3,29.75,West,270,0.0,1.0,52,0.00,,---,0.00,VWS V14.01,2013-03-01 15:12:00,
2013-03-01 10:17:00,61.0,40.7,29.75,NE,45,3.0,5.0,47,0.00,,---,0.00,VWS V14.01,2013-03-01 15:17:00,
2013-03-01 10:22:00,62.0,41.0,29.75,NE,45,3.0,5.0,46,0.00,,---,0.00,VWS V14.01,2013-03-01 15:22:00,
2013-03-01 10:27:00,63.0,41.3,29.75,North,360,0.0,1.0,45,0.00,,---,0.00,VWS V14.01,2013-03-01 15:27:00,
2013-03-01 10:32:00,63.0,40.2,29.75,ENE,67,1.0,6.0,43,0.00,,---,0.00,VWS V14.01,2013-03-01 15:32:00,
2013-03-01 10:37:00,63.0,40.8,29.75,NE,45,0.0,6.0,44,0.00,,---,0.00,VWS V14.01,2013-03-01 15:37:00,
2013-03-01 10:42:00,63.0,41.3,29.75,North,360,1.0,2.0,45,0.00,,---,0.00,VWS V14.01,2013-03-01 15:42:00,
2013-03-01 10:47:00,63.0,41.3,29.75,NNW,337,0.0,3.0,45,0.00,,---,0.00,VWS V14.01,2013-03-01 15:47:00,
2013-03-01 10:52:00,64.0,39.8,29.74,NE,45,3.0,4.0,41,0.00,,---,0.00,VWS V14.01,2013-03-01 15:52:00,
2013-03-01 10:57:00,65.0,40.1,29.74,North,360,0.0,3.0,40,0.00,,---,0.00,VWS V14.01,2013-03-01 15:57:00,
2013-03-01 11:02:00,66.0,40.4,29.73,WSW,247,6.0,6.0,39,0.00,,---,0.00,VWS V14.01,2013-03-01 16:02:00,
2013-03-01 11:07:00,66.0,39.0,29.73,SW,225,2.0,4.0,37,0.00,,---,0.00,VWS V14.01,2013-03-01 16:07:00,
2013-03-01 11:12:00,66.0,39.0,29.73,West,270,4.0,6.0,37,0.00,,---,0.00,VWS V14.01,2013-03-01 16:12:00,
2013-03-01 11:18:00,66.0,39.0,29.73,North,360,5.0,5.0,37,0.00,,---,0.00,VWS V14.01,2013-03-01 16:18:00,
2013-03-01 11:23:00,67.0,39.2,29.73,North,360,1.0,7.0,36,0.00,,---,0.00,VWS V14.01,2013-03-01 16:23:00,
2013-03-01 11:28:00,66.0,40.4,29.73,West,270,4.0,6.0,39,0.00,,---,0.00,VWS V14.01,2013-03-01 16:28:00,
2013-03-01 11:33:00,67.0,41.9,29.73,WSW,247,7.0,7.0,40,0.00,,---,0.00,VWS V14.01,2013-03-01 16:33:00,
2013-03-01 11:38:00,67.0,39.2,29.73,NNW,337,3.0,6.0,36,0.00,,---,0.00,VWS V14.01,2013-03-01 16:38:00,
2013-03-01 11:43:00,67.0,39.9,29.73,NNE,22,0.0,6.0,37,0.00,,---,0.00,VWS V14.01,2013-03-01 16:43:00,
2013-03-01 11:48:00,67.0,41.2,29.73,NE,45,0.0,3.0,39,0.00,,---,0.00,VWS V14.01,2013-03-01 16:48:00,
2013-03-01 11:53:00,67.0,41.9,29.72,SW,225,0.0,1.0,40,0.00,,---,0.00,VWS V14.01,2013-03-01 16:53:00,
2013-03-01 11:58:00,67.0,38.5,29.72,West,270,5.0,7.0,35,0.00,,---,0.00,VWS V14.01,2013-03-01 16:58:00,
2013-03-01 12:03:00,68.0,38.6,29.71,NNE,22,3.0,6.0,34,0.00,,---,0.00,VWS V14.01,2013-03-01 17:03:00,
2013-03-01 12:08:00,68.0,38.6,29.71,North,360,0.0,5.0,34,0.00,,---,0.00,VWS V14.01,2013-03-01 17:08:00,
2013-03-01 12:13:00,69.0,39.5,29.70,West,270,0.0,3.0,34,0.00,,---,0.00,VWS V14.01,2013-03-01 17:13:00,
2013-03-01 12:18:00,70.0,39.6,29.70,West,270,6.0,6.0,33,0.00,,---,0.00,VWS V14.01,2013-03-01 17:18:00,
2013-03-01 12:23:00,69.0,39.5,29.70,South,180,0.0,3.0,34,0.00,,---,0.00,VWS V14.01,2013-03-01 17:23:00,
2013-03-01 12:28:00,70.0,38.8,29.70,NW,315,4.0,7.0,32,0.00,,---,0.00,VWS V14.01,2013-03-01 17:28:00,
2013-03-01 12:33:00,70.0,38.8,29.69,WSW,247,6.0,6.0,32,0.00,,---,0.00,VWS V14.01,2013-03-01 17:33:00,
2013-03-01 12:38:00,69.0,36.3,29.69,NNW,337,3.0,3.0,30,0.00,,---,0.00,VWS V14.01,2013-03-01 17:38:00,
2013-03-01 12:43:00,69.0,37.9,29.69,NW,315,1.0,1.0,32,0.00,,---,0.00,VWS V14.01,2013-03-01 17:43:00,
2013-03-01 12:48:00,69.0,38.7,29.69,WSW,247,0.0,1.0,33,0.00,,---,0.00,VWS V14.01,2013-03-01 17:48:00,
2013-03-01 12:53:00,67.0,35.4,29.69,WSW,247,6.0,6.0,31,0.00,,---,0.00,VWS V14.01,2013-03-01 17:53:00,
2013-03-01 12:58:00,67.0,36.2,29.69,East,90,0.0,3.0,32,0.00,,---,0.00,VWS V14.01,2013-03-01 17:58:00,
2013-03-01 13:03:00,67.0,37.0,29.69,SSW,202,0.0,6.0,33,0.00,,---,0.00,VWS V14.01,2013-03-01 18:03:00,
2013-03-01 13:08:00,67.0,35.4,29.69,WSW,247,1.0,5.0,31,0.00,,---,0.00,VWS V14.01,2013-03-01 18:08:00,
2013-03-01 13:13:00,66.0,35.3,29.68,NW,315,0.0,1.0,32,0.00,,---,0.00,VWS V14.01,2013-03-01 18:13:00,
2013-03-01 13:18:00,66.0,35.3,29.68,SSW,202,0.0,5.0,32,0.00,,---,0.00,VWS V14.01,2013-03-01 18:18:00,
2013-03-01 13:23:00,66.0,35.3,29.69,NW,315,0.0,3.0,32,0.00,,---,0.00,VWS V14.01,2013-03-01 18:23:00,
2013-03-01 13:28:00,66.0,35.3,29.69,WSW,247,4.0,5.0,32,0.00,,---,0.00,VWS V14.01,2013-03-01 18:28:00,
2013-03-01 13:33:00,65.0,35.2,29.68,West,270,3.0,6.0,33,0.00,,---,0.00,VWS V14.01,2013-03-01 18:33:00,
2013-03-01 13:38:00,65.0,36.0,29.68,NW,315,0.0,2.0,34,0.00,,---,0.00,VWS V14.01,2013-03-01 18:38:00,
2013-03-01 13:43:00,65.0,36.0,29.68,WSW,247,0.0,1.0,34,0.00,,---,0.00,VWS V14.01,2013-03-01 18:43:00,
2013-03-01 13:48:00,66.0,35.3,29.68,SW,225,1.0,4.0,32,0.00,,---,0.00,VWS V14.01,2013-03-01 18:48:00,
2013-03-01 13:53:00,66.0,36.1,29.68,SW,225,0.0,4.0,33,0.00,,---,0.00,VWS V14.01,2013-03-01 18:53:00,
2013-03-01 13:58:00,67.0,38.5,29.68,SW,225,0.0,1.0,35,0.00,,---,0.00,VWS V14.01,2013-03-01 18:58:00,
2013-03-01 14:03:00,67.0,36.2,29.67,WSW,247,3.0,7.0,32,0.00,,---,0.00,VWS V14.01,2013-03-01 19:03:00,
2013-03-01 14:08:00,67.0,37.7,29.67,WSW,247,0.0,1.0,34,0.00,,---,0.00,VWS V14.01,2013-03-01 19:08:00,
2013-03-01 14:13:00,67.0,37.7,29.67,South,180,1.0,1.0,34,0.00,,---,0.00,VWS V14.01,2013-03-01 19:13:00,
2013-03-01 14:18:00,66.0,36.8,29.67,WSW,247,0.0,2.0,34,0.00,,---,0.00,VWS V14.01,2013-03-01 19:18:00,
2013-03-01 14:23:00,66.0,36.8,29.66,WSW,247,3.0,6.0,34,0.00,,---,0.00,VWS V14.01,2013-03-01 19:23:00,
2013-03-01 14:28:00,66.0,36.8,29.66,North,360,0.0,6.0,34,0.00,,---,0.00,VWS V14.01,2013-03-01 19:28:00,
2013-03-01 14:33:00,65.0,35.2,29.67,WSW,247,3.0,6.0,33,0.00,,---,0.00,VWS V14.01,2013-03-01 19:33:00,
2013-03-01 14:38:00,64.0,35.8,29.67,West,270,2.0,5.0,35,0.00,,---,0.00,VWS V14.01,2013-03-01 19:38:00,
2013-03-01 14:43:00,64.0,35.8,29.67,SW,225,1.0,2.0,35,0.00,,---,0.00,VWS V14.01,2013-03-01 19:43:00,
2013-03-01 14:48:00,63.0,35.7,29.67,West,270,2.0,5.0,36,0.00,,---,0.00,VWS V14.01,2013-03-01 19:48:00,
2013-03-01 14:53:00,62.0,36.1,29.68,WSW,247,4.0,6.0,38,0.00,,---,0.00,VWS V14.01,2013-03-01 19:53:00,
2013-03-01 14:58:00,62.0,36.1,29.68,WSW,247,2.0,7.0,38,0.00,,---,0.00,VWS V14.01,2013-03-01 19:58:00,
2013-03-01 15:03:00,62.0,37.4,29.68,SW,225,0.0,2.0,40,0.00,,---,0.00,VWS V14.01,2013-03-01 20:03:00,
2013-03-01 15:08:00,62.0,37.4,29.68,SW,225,0.0,2.0,40,0.00,,---,0.00,VWS V14.01,2013-03-01 20:08:00,
2013-03-01 15:13:00,62.0,37.4,29.67,SW,225,2.0,4.0,40,0.00,,---,0.00,VWS V14.01,2013-03-01 20:13:00,
2013-03-01 15:18:00,61.0,36.5,29.67,SW,225,0.0,4.0,40,0.00,,---,0.00,VWS V14.01,2013-03-01 20:18:00,
2013-03-01 15:23:00,61.0,36.5,29.69,WSW,247,1.0,6.0,40,0.00,,---,0.00,VWS V14.01,2013-03-01 20:23:00,
2013-03-01 15:28:00,61.0,37.2,29.69,SW,225,3.0,4.0,41,0.00,,---,0.00,VWS V14.01,2013-03-01 20:28:00,
2013-03-01 15:33:00,61.0,37.8,29.69,SW,225,0.0,7.0,42,0.00,,---,0.00,VWS V14.01,2013-03-01 20:33:00,
2013-03-01 15:38:00,61.0,37.8,29.69,SW,225,2.0,3.0,42,0.00,,---,0.00,VWS V14.01,2013-03-01 20:38:00,
2013-03-01 15:43:00,61.0,37.8,29.69,SW,225,0.0,1.0,42,0.00,,---,0.00,VWS V14.01,2013-03-01 20:43:00,
2013-03-01 15:48:00,61.0,37.2,29.69,SW,225,4.0,4.0,41,0.00,,---,0.00,VWS V14.01,2013-03-01 20:48:00,
2013-03-01 15:53:00,60.0,37.5,29.69,WSW,247,2.0,2.0,43,0.00,,---,0.00,VWS V14.01,2013-03-01 20:53:00,
2013-03-01 15:58:00,60.0,36.9,29.69,SW,225,0.0,8.0,42,0.00,,---,0.00,VWS V14.01,2013-03-01 20:58:00,
2013-03-01 16:03:00,60.0,38.6,29.70,WSW,247,1.0,3.0,45,0.00,,---,0.00,VWS V14.01,2013-03-01 21:03:00,
2013-03-01 16:08:00,60.0,37.5,29.70,WSW,247,2.0,6.0,43,0.00,,---,0.00,VWS V14.01,2013-03-01 21:08:00,
2013-03-01 16:13:00,60.0,38.0,29.70,SW,225,3.0,5.0,44,0.00,,---,0.00,VWS V14.01,2013-03-01 21:13:00,
2013-03-01 16:18:00,60.0,37.5,29.70,South,180,0.0,4.0,43,0.00,,---,0.00,VWS V14.01,2013-03-01 21:18:00,
2013-03-01 16:23:00,60.0,38.0,29.70,WSW,247,0.0,6.0,44,0.00,,---,0.00,VWS V14.01,2013-03-01 21:23:00,
2013-03-01 16:28:00,60.0,38.6,29.70,WSW,247,1.0,6.0,45,0.00,,---,0.00,VWS V14.01,2013-03-01 21:28:00,
2013-03-01 16:33:00,60.0,39.2,29.70,SW,225,0.0,3.0,46,0.00,,---,0.00,VWS V14.01,2013-03-01 21:33:00,
2013-03-01 16:38:00,60.0,39.2,29.70,SW,225,4.0,4.0,46,0.00,,---,0.00,VWS V14.01,2013-03-01 21:38:00,
2013-03-01 16:43:00,60.0,38.6,29.69,SE,135,1.0,3.0,45,0.00,,---,0.00,VWS V14.01,2013-03-01 21:43:00,
2013-03-01 16:48:00,60.0,39.7,29.69,SSW,202,0.0,1.0,47,0.00,,---,0.00,VWS V14.01,2013-03-01 21:48:00,
2013-03-01 16:53:00,59.0,38.3,29.70,SW,225,6.0,6.0,46,0.00,,---,0.00,VWS V14.01,2013-03-01 21:53:00,
2013-03-01 16:58:00,59.0,38.3,29.70,WSW,247,0.0,5.0,46,0.00,,---,0.00,VWS V14.01,2013-03-01 21:58:00,
2013-03-01 17:03:00,59.0,38.8,29.71,WSW,247,1.0,2.0,47,0.00,,---,0.00,VWS V14.01,2013-03-01 22:03:00,
2013-03-01 17:09:00,59.0,38.8,29.71,WSW,247,2.0,3.0,47,0.00,,---,0.00,VWS V14.01,2013-03-01 22:09:00,
2013-03-01 17:14:00,59.0,39.4,29.70,WSW,247,0.0,2.0,48,0.00,,---,0.00,VWS V14.01,2013-03-01 22:14:00,
2013-03-01 17:19:00,59.0,39.4,29.70,WSW,247,3.0,4.0,48,0.00,,---,0.00,VWS V14.01,2013-03-01 22:19:00,
2013-03-01 17:24:00,59.0,39.4,29.70,WSW,247,2.0,2.0,48,0.00,,---,0.00,VWS V14.01,2013-03-01 22:24:00,
2013-03-01 17:29:00,59.0,39.9,29.70,WSW,247,2.0,2.0,49,0.00,,---,0.00,VWS V14.01,2013-03-01 22:29:00,
2013-03-01 17:34:00,59.0,39.9,29.70,WSW,247,1.0,2.0,49,0.00,,---,0.00,VWS V14.01,2013-03-01 22:34:00,
2013-03-01 17:39:00,58.0,39.5,29.70,SW,225,1.0,3.0,50,0.00,,---,0.00,VWS V14.01,2013-03-01 22:39:00,
2013-03-01 17:44:00,58.0,40.0,29.71,SW,225,0.0,0.0,51,0.00,,---,0.00,VWS V14.01,2013-03-01 22:44:00,
2013-03-01 17:49:00,58.0,40.0,29.71,SW,225,0.0,0.0,51,0.00,,---,0.00,VWS V14.01,2013-03-01 22:49:00,
2013-03-01 17:54:00,58.0,40.0,29.71,SW,225,1.0,4.0,51,0.00,,---,0.00,VWS V14.01,2013-03-01 22:54:00,
2013-03-01 17:59:00,58.0,40.5,29.71,SW,225,2.0,3.0,52,0.00,,---,0.00,VWS V14.01,2013-03-01 22:59:00,
2013-03-01 18:04:00,58.0,40.5,29.71,SW,225,1.0,4.0,52,0.00,,---,0.00,VWS V14.01,2013-03-01 23:04:00,
2013-03-01 18:09:00,58.0,41.0,29.71,SW,225,0.0,2.0,53,0.00,,---,0.00,VWS V14.01,2013-03-01 23:09:00,
2013-03-01 18:14:00,58.0,41.0,29.71,SW,225,0.0,0.0,53,0.00,,---,0.00,VWS V14.01,2013-03-01 23:14:00,
2013-03-01 18:19:00,58.0,41.5,29.71,SW,225,0.0,4.0,54,0.00,,---,0.00,VWS V14.01,2013-03-01 23:19:00,
2013-03-01 18:24:00,58.0,42.4,29.71,SW,225,0.0,0.0,56,0.00,,---,0.00,VWS V14.01,2013-03-01 23:24:00,
2013-03-01 18:29:00,57.0,41.5,29.71,SW,225,0.0,0.0,56,0.00,,---,0.00,VWS V14.01,2013-03-01 23:29:00,
2013-03-01 18:34:00,57.0,41.5,29.71,SW,225,0.0,0.0,56,0.00,,---,0.00,VWS V14.01,2013-03-01 23:34:00,
2013-03-01 18:39:00,57.0,42.4,29.71,SW,225,0.0,0.0,58,0.00,,---,0.00,VWS V14.01,2013-03-01 23:39:00,
2013-03-01 18:44:00,57.0,42.8,29.72,SW,225,0.0,0.0,59,0.00,,---,0.00,VWS V14.01,2013-03-01 23:44:00,
2013-03-01 18:49:00,56.0,41.9,29.72,SW,225,0.0,0.0,59,0.00,,---,0.00,VWS V14.01,2013-03-01 23:49:00,
2013-03-01 18:54:00,56.0,42.3,29.72,SW,225,0.0,0.0,60,0.00,,---,0.00,VWS V14.01,2013-03-01 23:54:00,
2013-03-01 18:59:00,56.0,43.6,29.72,SW,225,0.0,0.0,63,0.00,,---,0.00,VWS V14.01,2013-03-01 23:59:00,
2013-03-01 19:04:00,56.0,43.6,29.73,SW,225,0.0,0.0,63,0.00,,---,0.00,VWS V14.01,2013-03-02 00:04:00,
2013-03-01 19:09:00,56.0,43.6,29.73,SW,225,0.0,0.0,63,0.00,,---,0.00,VWS V14.01,2013-03-02 00:09:00,
2013-03-01 19:14:00,56.0,43.6,29.73,SW,225,0.0,0.0,63,0.00,,---,0.00,VWS V14.01,2013-03-02 00:14:00,
2013-03-01 19:19:00,56.0,43.6,29.73,SW,225,0.0,0.0,63,0.00,,---,0.00,VWS V14.01,2013-03-02 00:19:00,
2013-03-01 19:24:00,55.0,42.7,29.74,SW,225,0.0,0.0,63,0.00,,---,0.00,VWS V14.01,2013-03-02 00:24:00,
2013-03-01 19:29:00,55.0,42.7,29.74,SW,225,0.0,0.0,63,0.00,,---,0.00,VWS V14.01,2013-03-02 00:29:00,
2013-03-01 19:34:00,55.0,43.1,29.73,SW,225,0.0,0.0,64,0.00,,---,0.00,VWS V14.01,2013-03-02 00:34:00,
2013-03-01 19:39:00,55.0,43.1,29.73,SW,225,0.0,0.0,64,0.00,,---,0.00,VWS V14.01,2013-03-02 00:39:00,
2013-03-01 19:44:00,55.0,43.9,29.74,SW,225,0.0,0.0,66,0.00,,---,0.00,VWS V14.01,2013-03-02 00:44:00,
2013-03-01 19:49:00,55.0,44.3,29.74,SW,225,0.0,1.0,67,0.00,,---,0.00,VWS V14.01,2013-03-02 00:49:00,
2013-03-01 19:54:00,55.0,43.9,29.74,SW,225,0.0,0.0,66,0.00,,---,0.00,VWS V14.01,2013-03-02 00:54:00,
2013-03-01 19:59:00,55.0,43.9,29.74,SW,225,0.0,0.0,66,0.00,,---,0.00,VWS V14.01,2013-03-02 00:59:00,
2013-03-01 20:04:00,55.0,43.9,29.74,SW,225,0.0,0.0,66,0.00,,---,0.00,VWS V14.01,2013-03-02 01:04:00,
2013-03-01 20:09:00,55.0,43.9,29.74,SW,225,0.0,0.0,66,0.00,,---,0.00,VWS V14.01,2013-03-02 01:09:00,
2013-03-01 20:14:00,55.0,43.5,29.75,SW,225,0.0,0.0,65,0.00,,---,0.00,VWS V14.01,2013-03-02 01:14:00,
2013-03-01 20:19:00,55.0,42.7,29.75,SW,225,3.0,3.0,63,0.00,,---,0.00,VWS V14.01,2013-03-02 01:19:00,
2013-03-01 20:24:00,55.0,42.7,29.74,SW,225,2.0,3.0,63,0.00,,---,0.00,VWS V14.01,2013-03-02 01:24:00,
2013-03-01 20:29:00,55.0,41.8,29.74,SW,225,0.0,2.0,61,0.00,,---,0.00,VWS V14.01,2013-03-02 01:29:00,
2013-03-01 20:34:00,56.0,43.2,29.74,SW,225,0.0,0.0,62,0.00,,---,0.00,VWS V14.01,2013-03-02 01:34:00,
2013-03-01 20:39:00,56.0,42.3,29.74,SW,225,1.0,3.0,60,0.00,,---,0.00,VWS V14.01,2013-03-02 01:39:00,
2013-03-01 20:44:00,56.0,42.3,29.75,SW,225,2.0,4.0,60,0.00,,---,0.00,VWS V14.01,2013-03-02 01:44:00,
2013-03-01 20:49:00,56.0,42.3,29.75,SSW,202,0.0,3.0,60,0.00,,---,0.00,VWS V14.01,2013-03-02 01:49:00,
2013-03-01 20:54:00,56.0,41.9,29.75,SW,225,2.0,3.0,59,0.00,,---,0.00,VWS V14.01,2013-03-02 01:54:00,
2013-03-01 20:59:00,56.0,41.5,29.75,WSW,247,4.0,5.0,58,0.00,,---,0.00,VWS V14.01,2013-03-02 01:59:00,
2013-03-01 21:04:00,56.0,41.9,29.75,WSW,247,0.0,2.0,59,0.00,,---,0.00,VWS V14.01,2013-03-02 02:04:00,
2013-03-01 21:09:00,57.0,42.4,29.75,WSW,247,0.0,3.0,58,0.00,,---,0.00,VWS V14.01,2013-03-02 02:09:00,
2013-03-01 21:14:00,57.0,41.9,29.75,WSW,247,5.0,6.0,57,0.00,,---,0.00,VWS V14.01,2013-03-02 02:14:00,
2013-03-01 21:19:00,57.0,41.9,29.75,WSW,247,6.0,6.0,57,0.00,,---,0.00,VWS V14.01,2013-03-02 02:19:00,
2013-03-01 21:24:00,57.0,42.4,29.75,WSW,247,0.0,6.0,58,0.00,,---,0.00,VWS V14.01,2013-03-02 02:24:00,
2013-03-01 21:29:00,57.0,42.4,29.75,NW,315,0.0,2.0,58,0.00,,---,0.00,VWS V14.01,2013-03-02 02:29:00,
2013-03-01 21:34:00,57.0,42.4,29.75,WSW,247,0.0,0.0,58,0.00,,---,0.00,VWS V14.01,2013-03-02 02:34:00,
2013-03-01 21:39:00,56.0,41.0,29.75,WSW,247,3.0,3.0,57,0.00,,---,0.00,VWS V14.01,2013-03-02 02:39:00,
2013-03-01 21:44:00,56.0,40.5,29.75,WSW,247,0.0,3.0,56,0.00,,---,0.00,VWS V14.01,2013-03-02 02:44:00,
2013-03-01 21:49:00,56.0,40.5,29.75,WSW,247,0.0,6.0,56,0.00,,---,0.00,VWS V14.01,2013-03-02 02:49:00,
2013-03-01 21:54:00,56.0,40.5,29.75,SW,225,2.0,3.0,56,0.00,,---,0.00,VWS V14.01,2013-03-02 02:54:00,
2013-03-01 21:59:00,56.0,39.6,29.75,West,270,2.0,6.0,54,0.00,,---,0.00,VWS V14.01,2013-03-02 02:59:00,
2013-03-01 22:04:00,56.0,39.6,29.76,SW,225,3.0,5.0,54,0.00,,---,0.00,VWS V14.01,2013-03-02 03:04:00,
2013-03-01 22:09:00,56.0,40.1,29.76,SW,225,2.0,2.0,55,0.00,,---,0.00,VWS V14.01,2013-03-02 03:09:00,
2013-03-01 22:14:00,56.0,39.6,29.77,WSW,247,0.0,3.0,54,0.00,,---,0.00,VWS V14.01,2013-03-02 03:14:00,
2013-03-01 22:19:00,56.0,40.1,29.77,WSW,247,0.0,0.0,55,0.00,,---,0.00,VWS V14.01,2013-03-02 03:19:00,
2013-03-01 22:24:00,56.0,39.6,29.77,SW,225,2.0,3.0,54,0.00,,---,0.00,VWS V14.01,2013-03-02 03:24:00,
2013-03-01 22:29:00,56.0,39.6,29.77,SW,225,0.0,4.0,54,0.00,,---,0.00,VWS V14.01,2013-03-02 03:29:00,
2013-03-01 22:34:00,56.0,39.6,29.77,WSW,247,3.0,4.0,54,0.00,,---,0.00,VWS V14.01,2013-03-02 03:34:00,
2013-03-01 22:39:00,56.0,39.1,29.77,WSW,247,0.0,2.0,53,0.00,,---,0.00,VWS V14.01,2013-03-02 03:39:00,
2013-03-01 22:44:00,56.0,38.6,29.77,West,270,0.0,3.0,52,0.00,,---,0.00,VWS V14.01,2013-03-02 03:44:00,
2013-03-01 22:49:00,55.0,37.2,29.77,West,270,1.0,1.0,51,0.00,,---,0.00,VWS V14.01,2013-03-02 03:49:00,
2013-03-01 22:54:00,55.0,37.2,29.77,WSW,247,0.0,3.0,51,0.00,,---,0.00,VWS V14.01,2013-03-02 03:54:00,
2013-03-01 22:59:00,55.0,37.2,29.77,West,270,0.0,1.0,51,0.00,,---,0.00,VWS V14.01,2013-03-02 03:59:00,
2013-03-01 23:04:00,55.0,36.7,29.77,East,90,0.0,0.0,50,0.00,,---,0.00,VWS V14.01,2013-03-02 04:04:00,
2013-03-01 23:09:00,55.0,36.7,29.77,WSW,247,0.0,6.0,50,0.00,,---,0.00,VWS V14.01,2013-03-02 04:09:00,
2013-03-01 23:14:00,55.0,36.7,29.77,WSW,247,3.0,7.0,50,0.00,,---,0.00,VWS V14.01,2013-03-02 04:14:00,
2013-03-01 23:19:00,55.0,37.2,29.77,South,180,0.0,1.0,51,0.00,,---,0.00,VWS V14.01,2013-03-02 04:19:00,
2013-03-01 23:24:00,55.0,37.2,29.76,SW,225,8.0,9.0,51,0.00,,---,0.00,VWS V14.01,2013-03-02 04:24:00,
2013-03-01 23:29:00,55.0,37.7,29.76,SSW,202,0.0,4.0,52,0.00,,---,0.00,VWS V14.01,2013-03-02 04:29:00,
2013-03-01 23:34:00,55.0,37.7,29.76,West,270,1.0,2.0,52,0.00,,---,0.00,VWS V14.01,2013-03-02 04:34:00,
2013-03-01 23:39:00,55.0,38.2,29.76,SW,225,1.0,4.0,53,0.00,,---,0.00,VWS V14.01,2013-03-02 04:39:00,
2013-03-01 23:44:00,55.0,38.2,29.77,South,180,0.0,2.0,53,0.00,,---,0.00,VWS V14.01,2013-03-02 04:44:00,
2013-03-01 23:49:00,54.0,37.3,29.77,SW,225,1.0,2.0,53,0.00,,---,0.00,VWS V14.01,2013-03-02 04:49:00,
2013-03-01 23:54:00,54.0,37.8,29.77,SW,225,0.0,0.0,54,0.00,,---,0.00,VWS V14.01,2013-03-02 04:54:00,
2013-03-01 23:59:00,54.0,37.8,29.77,SW,225,0.0,3.0,54,0.00,,---,0.00,VWS V14.01,2013-03-02 04:59:00,